Time,TemperatureF,DewpointF,PressureIn,WindDirection,WindDirectionDegrees,WindSpeedMPH,WindSpeedGustMPH,Humidity,HourlyPrecipIn,Conditions,Clouds,dailyrainin,SoftwareType,DateUTC
2013-03-10 00:00:00,31.2,28.9,30.36,NNE,12,4.0,6.0,91,0.00,,,0.00,HR-IXPWINDi_r2_v1.2.,2013-03-10 05:00:00,
2013-03-10 00:05:00,31.3,29.0,30.36,North,349,4.0,8.0,91,0.00,,,0.00,HR-IXPWINDi_r2_v1.2.,2013-03-10 05:05:00,
2013-03-10 00:10:00,31.4,29.1,30.36,North,360,2.0,8.0,91,0.00,,,0.00,HR-IXPWINDi_r2_v1.2.,2013-03-10 05:10:00,
2013-03-10 00:15:00,31.3,29.0,30.36,NNE,15,2.0,6.0,91,0.00,,,0.00,HR-IXPWINDi_r2_v1.2.,2013-03-10 05:15:00,
2013-03-10 00:20:00,31.3,29.0,30.36,NNW,340,2.0,5.0,91,0.00,,,0.00,HR-IXPWINDi_r2_v1.2.,2013-03-10 05:20:00,
2013-03-10 00:25:00,31.4,29.1,30.37,NNW,347,4.0,5.0,91,0.00,,,0.00,HR-IXPWINDi_r2_v1.2.,2013-03-10 05:25:00,
2013-03-10 00:31:00,31.3,29.0,30.37,North,1,3.0,5.0,91,0.00,,,0.00,HR-IXPWINDi_r2_v1.2.,2013-03-10 05:31:00,
2013-03-10 00:36:00,31.1,28.8,30.38,NNW,344,3.0,5.0,91,0.00,,,0.00,HR-IXPWINDi_r2_v1.2.,2013-03-10 05:36:00,
2013-03-10 00:41:00,31.0,28.7,30.38,NNW,347,0.0,4.0,91,0.00,,,0.00,HR-IXPWINDi_r2_v1.2.,2013-03-10 05:41:00,
2013-03-10 00:46:00,30.9,28.6,30.38,NW,322,0.0,4.0,91,0.00,,,0.00,HR-IXPWINDi_r2_v1.2.,2013-03-10 05:46:00,
2013-03-10 00:51:00,30.8,28.7,30.38,NNW,345,1.0,3.0,92,0.00,,,0.00,HR-IXPWINDi_r2_v1.2.,2013-03-10 05:51:00,
2013-03-10 00:57:00,30.6,28.5,30.38,North,4,1.0,3.0,92,0.00,,,0.00,HR-IXPWINDi_r2_v1.2.,2013-03-10 05:57:00,
2013-03-10 01:02:00,30.5,28.4,30.38,NNW,340,1.0,4.0,92,0.00,,,0.00,HR-IXPWINDi_r2_v1.2.,2013-03-10 06:02:00,
2013-03-10 01:07:00,30.5,28.4,30.38,North,352,1.0,4.0,92,0.00,,,0.00,HR-IXPWINDi_r2_v1.2.,2013-03-10 06:07:00,
2013-03-10 01:12:00,30.4,28.3,30.38,North,356,1.0,3.0,92,0.00,,,0.00,HR-IXPWINDi_r2_v1.2.,2013-03-10 06:12:00,
2013-03-10 01:17:00,30.5,28.4,30.38,North,4,2.0,3.0,92,0.00,,,0.00,HR-IXPWINDi_r2_v1.2.,2013-03-10 06:17:00,
2013-03-10 01:23:00,30.4,28.3,30.38,North,1,1.0,4.0,92,0.00,,,0.00,HR-IXPWINDi_r2_v1.2.,2013-03-10 06:23:00,
2013-03-10 01:28:00,30.4,28.6,30.37,NNE,26,2.0,4.0,93,0.00,,,0.00,HR-IXPWINDi_r2_v1.2.,2013-03-10 06:28:00,
2013-03-10 01:33:00,30.5,28.7,30.37,NNE,29,2.0,4.0,93,0.00,,,0.00,HR-IXPWINDi_r2_v1.2.,2013-03-10 06:33:00,
2013-03-10 01:38:00,30.5,28.7,30.37,North,10,2.0,4.0,93,0.00,,,0.00,HR-IXPWINDi_r2_v1.2.,2013-03-10 06:38:00,
2013-03-10 01:44:00,30.6,28.8,30.37,North,8,2.0,4.0,93,0.00,,,0.00,HR-IXPWINDi_r2_v1.2.,2013-03-10 06:44:00,
2013-03-10 01:49:00,30.8,29.0,30.37,NNE,22,3.0,6.0,93,0.00,,,0.00,HR-IXPWINDi_r2_v1.2.,2013-03-10 06:49:00,
2013-03-10 01:54:00,30.8,29.0,30.38,North,352,3.0,6.0,93,0.00,,,0.00,HR-IXPWINDi_r2_v1.2.,2013-03-10 06:54:00,
2013-03-10 01:59:00,30.8,29.0,30.38,North,4,2.0,5.0,93,0.00,,,0.00,HR-IXPWINDi_r2_v1.2.,2013-03-10 06:59:00,
2013-03-10 03:04:00,30.8,29.0,30.38,North,350,1.0,5.0,93,0.00,,,0.00,HR-IXPWINDi_r2_v1.2.,2013-03-10 07:04:00,
2013-03-10 03:10:00,30.6,28.8,30.38,NNW,336,2.0,5.0,93,0.00,,,0.00,HR-IXPWINDi_r2_v1.2.,2013-03-10 07:10:00,
2013-03-10 03:15:00,30.4,28.6,30.38,North,1,1.0,3.0,93,0.00,,,0.00,HR-IXPWINDi_r2_v1.2.,2013-03-10 07:15:00,
2013-03-10 03:20:00,30.4,28.6,30.38,NNE,15,2.0,3.0,93,0.00,,,0.00,HR-IXPWINDi_r2_v1.2.,2013-03-10 07:20:00,
2013-03-10 03:25:00,30.4,28.6,30.37,NNE,12,2.0,4.0,93,0.00,,,0.00,HR-IXPWINDi_r2_v1.2.,2013-03-10 07:25:00,
2013-03-10 03:30:00,30.6,29.1,30.37,NNE,18,2.0,6.0,94,0.00,,,0.00,HR-IXPWINDi_r2_v1.2.,2013-03-10 07:30:00,
2013-03-10 03:35:00,30.9,29.4,30.37,North,359,4.0,6.0,94,0.00,,,0.00,HR-IXPWINDi_r2_v1.2.,2013-03-10 07:35:00,
2013-03-10 03:41:00,31.0,29.2,30.37,NNE,16,3.0,5.0,93,0.00,,,0.00,HR-IXPWINDi_r2_v1.2.,2013-03-10 07:41:00,
2013-03-10 03:46:00,31.1,29.3,30.37,NNE,19,3.0,6.0,93,0.00,,,0.00,HR-IXPWINDi_r2_v1.2.,2013-03-10 07:46:00,
2013-03-10 03:51:00,31.1,29.3,30.37,North,9,4.0,6.0,93,0.00,,,0.00,HR-IXPWINDi_r2_v1.2.,2013-03-10 07:51:00,
2013-03-10 03:56:00,31.1,29.3,30.37,North,358,6.0,8.0,93,0.00,,,0.00,HR-IXPWINDi_r2_v1.2.,2013-03-10 07:56:00,
2013-03-10 04:01:00,31.1,29.3,30.37,NNE,26,2.0,8.0,93,0.00,,,0.00,HR-IXPWINDi_r2_v1.2.,2013-03-10 08:01:00,
2013-03-10 04:06:00,31.1,29.3,30.37,North,349,3.0,7.0,93,0.00,,,0.00,HR-IXPWINDi_r2_v1.2.,2013-03-10 08:06:00,
2013-03-10 04:12:00,31.2,29.4,30.37,NNE,13,4.0,7.0,93,0.00,,,0.00,HR-IXPWINDi_r2_v1.2.,2013-03-10 08:12:00,
2013-03-10 04:17:00,31.2,29.4,30.37,NNE,29,3.0,7.0,93,0.00,,,0.00,HR-IXPWINDi_r2_v1.2.,2013-03-10 08:17:00,
2013-03-10 04:22:00,31.2,29.4,30.38,NNE,26,0.0,7.0,93,0.00,,,0.00,HR-IXPWINDi_r2_v1.2.,2013-03-10 08:22:00,
2013-03-10 04:27:00,31.3,29.5,30.38,NNE,13,4.0,6.0,93,0.00,,,0.00,HR-IXPWINDi_r2_v1.2.,2013-03-10 08:27:00,
2013-03-10 04:32:00,31.3,29.5,30.38,North,10,3.0,6.0,93,0.00,,,0.00,HR-IXPWINDi_r2_v1.2.,2013-03-10 08:32:00,
2013-03-10 04:37:00,31.4,29.6,30.38,NNE,18,3.0,7.0,93,0.00,,,0.00,HR-IXPWINDi_r2_v1.2.,2013-03-10 08:37:00,
2013-03-10 04:43:00,31.6,29.8,30.38,NNE,20,4.0,7.0,93,0.00,,,0.00,HR-IXPWINDi_r2_v1.2.,2013-03-10 08:43:00,
2013-03-10 04:48:00,31.7,29.9,30.38,NE,51,5.0,8.0,93,0.00,,,0.00,HR-IXPWINDi_r2_v1.2.,2013-03-10 08:48:00,
2013-03-10 04:53:00,31.8,30.0,30.38,NNE,26,3.0,8.0,93,0.00,,,0.00,HR-IXPWINDi_r2_v1.2.,2013-03-10 08:53:00,
2013-03-10 04:58:00,31.7,29.6,30.38,North,11,4.0,8.0,92,0.00,,,0.00,HR-IXPWINDi_r2_v1.2.,2013-03-10 08:58:00,
2013-03-10 05:04:00,31.7,29.6,30.38,North,358,3.0,8.0,92,0.00,,,0.00,HR-IXPWINDi_r2_v1.2.,2013-03-10 09:04:00,
2013-03-10 05:09:00,31.8,29.7,30.38,NNE,19,5.0,8.0,92,0.00,,,0.00,HR-IXPWINDi_r2_v1.2.,2013-03-10 09:09:00,
2013-03-10 05:14:00,31.8,29.7,30.38,North,11,5.0,8.0,92,0.00,,,0.00,HR-IXPWINDi_r2_v1.2.,2013-03-10 09:14:00,
2013-03-10 05:19:00,31.9,29.8,30.38,NNE,26,5.0,6.0,92,0.00,,,0.00,HR-IXPWINDi_r2_v1.2.,2013-03-10 09:19:00,
2013-03-10 05:24:00,32.0,29.9,30.38,North,4,2.0,7.0,92,0.00,,,0.00,HR-IXPWINDi_r2_v1.2.,2013-03-10 09:24:00,
2013-03-10 05:29:00,32.1,30.0,30.38,NNE,32,2.0,7.0,92,0.00,,,0.00,HR-IXPWINDi_r2_v1.2.,2013-03-10 09:29:00,
2013-03-10 05:34:00,32.1,30.0,30.38,NNE,22,2.0,6.0,92,0.00,,,0.00,HR-IXPWINDi_r2_v1.2.,2013-03-10 09:34:00,
2013-03-10 05:39:00,32.1,30.0,30.38,NNE,12,4.0,7.0,92,0.00,,,0.00,HR-IXPWINDi_r2_v1.2.,2013-03-10 09:39:00,
2013-03-10 05:45:00,32.1,30.0,30.38,NNW,345,2.0,7.0,92,0.00,,,0.00,HR-IXPWINDi_r2_v1.2.,2013-03-10 09:45:00,
2013-03-10 05:50:00,32.2,30.1,30.38,NNE,13,3.0,6.0,92,0.00,,,0.00,HR-IXPWINDi_r2_v1.2.,2013-03-10 09:50:00,
2013-03-10 05:55:00,32.3,30.2,30.38,North,349,3.0,7.0,92,0.00,,,0.00,HR-IXPWINDi_r2_v1.2.,2013-03-10 09:55:00,
2013-03-10 06:00:00,32.3,30.2,30.38,North,352,4.0,7.0,92,0.00,,,0.00,HR-IXPWINDi_r2_v1.2.,2013-03-10 10:00:00,
2013-03-10 06:05:00,32.3,30.2,30.39,NNE,30,4.0,5.0,92,0.00,,,0.00,HR-IXPWINDi_r2_v1.2.,2013-03-10 10:05:00,
2013-03-10 06:10:00,32.4,30.3,30.38,NNE,19,4.0,5.0,92,0.00,,,0.00,HR-IXPWINDi_r2_v1.2.,2013-03-10 10:10:00,
2013-03-10 06:16:00,32.5,30.4,30.39,NNE,27,6.0,7.0,92,0.00,,,0.00,HR-IXPWINDi_r2_v1.2.,2013-03-10 10:16:00,
2013-03-10 06:21:00,32.5,30.4,30.38,NE,43,3.0,7.0,92,0.00,,,0.00,HR-IXPWINDi_r2_v1.2.,2013-03-10 10:21:00,
2013-03-10 06:26:00,32.9,30.8,30.38,NNE,19,2.0,8.0,92,0.00,,,0.00,HR-IXPWINDi_r2_v1.2.,2013-03-10 10:26:00,
2013-03-10 06:31:00,33.2,31.1,30.38,ENE,64,5.0,9.0,92,0.00,,,0.00,HR-IXPWINDi_r2_v1.2.,2013-03-10 10:31:00,
2013-03-10 06:36:00,33.4,31.3,30.38,NE,36,6.0,9.0,92,0.00,,,0.00,HR-IXPWINDi_r2_v1.2.,2013-03-10 10:36:00,
2013-03-10 06:41:00,33.4,31.3,30.38,NE,44,5.0,8.0,92,0.00,,,0.00,HR-IXPWINDi_r2_v1.2.,2013-03-10 10:41:00,
2013-03-10 06:46:00,33.5,31.4,30.39,NNE,27,4.0,8.0,92,0.00,,,0.00,HR-IXPWINDi_r2_v1.2.,2013-03-10 10:46:00,
2013-03-10 06:52:00,33.5,31.4,30.39,NE,40,3.0,8.0,92,0.00,,,0.00,HR-IXPWINDi_r2_v1.2.,2013-03-10 10:52:00,
2013-03-10 06:57:00,33.7,31.6,30.39,NE,44,4.0,10.0,92,0.00,,,0.00,HR-IXPWINDi_r2_v1.2.,2013-03-10 10:57:00,
2013-03-10 07:02:00,33.7,31.6,30.39,NNE,22,2.0,10.0,92,0.00,,,0.00,HR-IXPWINDi_r2_v1.2.,2013-03-10 11:02:00,
2013-03-10 07:07:00,33.8,31.7,30.39,NNE,23,3.0,10.0,92,0.00,,,0.00,HR-IXPWINDi_r2_v1.2.,2013-03-10 11:07:00,
2013-03-10 07:12:00,33.9,31.5,30.39,NE,43,7.0,9.0,91,0.00,,,0.00,HR-IXPWINDi_r2_v1.2.,2013-03-10 11:12:00,
2013-03-10 07:17:00,34.0,31.6,30.39,NE,56,6.0,9.0,91,0.00,,,0.00,HR-IXPWINDi_r2_v1.2.,2013-03-10 11:17:00,
2013-03-10 07:23:00,34.0,31.6,30.40,NE,36,3.0,8.0,91,0.00,,,0.00,HR-IXPWINDi_r2_v1.2.,2013-03-10 11:23:00,
2013-03-10 07:28:00,34.1,31.4,30.40,NNE,27,5.0,8.0,90,0.00,,,0.00,HR-IXPWINDi_r2_v1.2.,2013-03-10 11:28:00,
2013-03-10 07:33:00,34.2,31.5,30.40,NNE,25,5.0,8.0,90,0.00,,,0.00,HR-IXPWINDi_r2_v1.2.,2013-03-10 11:33:00,
2013-03-10 07:38:00,34.3,31.6,30.40,NE,36,2.0,7.0,90,0.00,,,0.00,HR-IXPWINDi_r2_v1.2.,2013-03-10 11:38:00,
2013-03-10 07:43:00,34.4,31.7,30.40,NE,40,2.0,7.0,90,0.00,,,0.00,HR-IXPWINDi_r2_v1.2.,2013-03-10 11:43:00,
2013-03-10 07:48:00,34.5,31.8,30.40,NE,39,3.0,7.0,90,0.00,,,0.00,HR-IXPWINDi_r2_v1.2.,2013-03-10 11:48:00,
2013-03-10 07:54:00,34.5,31.8,30.40,North,6,3.0,10.0,90,0.00,,,0.00,HR-IXPWINDi_r2_v1.2.,2013-03-10 11:54:00,
2013-03-10 07:59:00,34.6,31.9,30.41,NE,51,2.0,10.0,90,0.00,,,0.00,HR-IXPWINDi_r2_v1.2.,2013-03-10 11:59:00,
2013-03-10 08:04:00,34.7,32.0,30.41,NNE,32,4.0,6.0,90,0.00,,,0.00,HR-IXPWINDi_r2_v1.2.,2013-03-10 12:04:00,
2013-03-10 08:09:00,34.9,32.0,30.41,NNE,20,7.0,7.0,89,0.00,,,0.00,HR-IXPWINDi_r2_v1.2.,2013-03-10 12:09:00,
2013-03-10 08:15:00,35.1,32.2,30.41,NE,43,2.0,7.0,89,0.00,,,0.00,HR-IXPWINDi_r2_v1.2.,2013-03-10 12:15:00,
2013-03-10 08:20:00,35.2,32.0,30.41,NNE,26,6.0,9.0,88,0.00,,,0.00,HR-IXPWINDi_r2_v1.2.,2013-03-10 12:20:00,
2013-03-10 08:25:00,35.3,32.1,30.42,North,4,5.0,9.0,88,0.00,,,0.00,HR-IXPWINDi_r2_v1.2.,2013-03-10 12:25:00,
2013-03-10 08:30:00,35.5,32.3,30.42,NNE,22,8.0,9.0,88,0.00,,,0.00,HR-IXPWINDi_r2_v1.2.,2013-03-10 12:30:00,
2013-03-10 08:35:00,35.6,32.1,30.42,NE,46,9.0,11.0,87,0.00,,,0.00,HR-IXPWINDi_r2_v1.2.,2013-03-10 12:35:00,
2013-03-10 08:40:00,35.6,32.1,30.42,ENE,58,7.0,11.0,87,0.00,,,0.00,HR-IXPWINDi_r2_v1.2.,2013-03-10 12:40:00,
2013-03-10 08:47:00,35.8,32.3,30.42,NNE,30,5.0,10.0,87,0.00,,,0.00,HR-IXPWINDi_r2_v1.2.,2013-03-10 12:47:00,
2013-03-10 08:52:00,35.9,32.4,30.42,NE,38,5.0,9.0,87,0.00,,,0.00,HR-IXPWINDi_r2_v1.2.,2013-03-10 12:52:00,
2013-03-10 08:57:00,36.1,32.3,30.41,NE,50,10.0,11.0,86,0.00,,,0.00,HR-IXPWINDi_r2_v1.2.,2013-03-10 12:57:00,
2013-03-10 09:03:00,36.1,32.6,30.41,NNE,26,9.0,12.0,87,0.00,,,0.00,HR-IXPWINDi_r2_v1.2.,2013-03-10 13:03:00,
2013-03-10 09:08:00,36.2,32.4,30.42,NNE,27,9.0,12.0,86,0.00,,,0.00,HR-IXPWINDi_r2_v1.2.,2013-03-10 13:08:00,
2013-03-10 09:13:00,36.3,32.5,30.41,NNE,19,6.0,12.0,86,0.00,,,0.00,HR-IXPWINDi_r2_v1.2.,2013-03-10 13:13:00,
2013-03-10 09:18:00,36.4,32.3,30.41,NNE,33,7.0,11.0,85,0.00,,,0.00,HR-IXPWINDi_r2_v1.2.,2013-03-10 13:18:00,
2013-03-10 09:23:00,36.5,32.7,30.42,NNW,342,4.0,13.0,86,0.00,,,0.00,HR-IXPWINDi_r2_v1.2.,2013-03-10 13:23:00,
2013-03-10 09:28:00,36.6,32.5,30.42,NNE,20,6.0,13.0,85,0.00,,,0.00,HR-IXPWINDi_r2_v1.2.,2013-03-10 13:28:00,
2013-03-10 09:34:00,36.7,32.3,30.42,NE,41,5.0,14.0,84,0.00,,,0.00,HR-IXPWINDi_r2_v1.2.,2013-03-10 13:34:00,
2013-03-10 09:39:00,36.9,32.5,30.42,NNE,20,6.0,14.0,84,0.00,,,0.00,HR-IXPWINDi_r2_v1.2.,2013-03-10 13:39:00,
2013-03-10 09:44:00,36.8,32.1,30.42,NNE,19,7.0,15.0,83,0.00,,,0.00,HR-IXPWINDi_r2_v1.2.,2013-03-10 13:44:00,
2013-03-10 09:49:00,37.0,32.3,30.42,NE,39,8.0,15.0,83,0.00,,,0.00,HR-IXPWINDi_r2_v1.2.,2013-03-10 13:49:00,
2013-03-10 09:55:00,37.0,32.3,30.42,NE,47,5.0,13.0,83,0.00,,,0.00,HR-IXPWINDi_r2_v1.2.,2013-03-10 13:55:00,
2013-03-10 10:00:00,37.2,32.2,30.42,ENE,63,6.0,13.0,82,0.00,,,0.00,HR-IXPWINDi_r2_v1.2.,2013-03-10 14:00:00,
2013-03-10 10:05:00,37.3,32.0,30.43,NNE,30,11.0,14.0,81,0.00,,,0.00,HR-IXPWINDi_r2_v1.2.,2013-03-10 14:05:00,
2013-03-10 10:10:00,37.2,31.9,30.43,NE,53,9.0,18.0,81,0.00,,,0.00,HR-IXPWINDi_r2_v1.2.,2013-03-10 14:10:00,
2013-03-10 10:16:00,37.2,31.9,30.43,NNE,29,10.0,18.0,81,0.00,,,0.00,HR-IXPWINDi_r2_v1.2.,2013-03-10 14:16:00,
2013-03-10 10:21:00,37.1,31.5,30.43,NNE,22,10.0,15.0,80,0.00,,,0.00,HR-IXPWINDi_r2_v1.2.,2013-03-10 14:21:00,
2013-03-10 10:26:00,37.2,31.9,30.43,NE,44,10.0,17.0,81,0.00,,,0.00,HR-IXPWINDi_r2_v1.2.,2013-03-10 14:26:00,
2013-03-10 10:31:00,37.7,32.4,30.43,NNE,32,5.0,17.0,81,0.00,,,0.00,HR-IXPWINDi_r2_v1.2.,2013-03-10 14:31:00,
2013-03-10 10:36:00,37.7,32.1,30.43,NNE,18,10.0,15.0,80,0.00,,,0.00,HR-IXPWINDi_r2_v1.2.,2013-03-10 14:36:00,
2013-03-10 10:42:00,38.0,32.0,30.43,North,5,7.0,14.0,79,0.00,,,0.00,HR-IXPWINDi_r2_v1.2.,2013-03-10 14:42:00,
2013-03-10 10:47:00,37.8,31.8,30.43,NNE,13,10.0,14.0,79,0.00,,,0.00,HR-IXPWINDi_r2_v1.2.,2013-03-10 14:47:00,
2013-03-10 10:52:00,37.8,32.2,30.43,NE,39,4.0,12.0,80,0.00,,,0.00,HR-IXPWINDi_r2_v1.2.,2013-03-10 14:52:00,
2013-03-10 10:57:00,38.1,32.1,30.43,NE,39,8.0,16.0,79,0.00,,,0.00,HR-IXPWINDi_r2_v1.2.,2013-03-10 14:57:00,
2013-03-10 11:03:00,37.9,31.9,30.43,NE,35,5.0,16.0,79,0.00,,,0.00,HR-IXPWINDi_r2_v1.2.,2013-03-10 15:03:00,
2013-03-10 11:08:00,38.3,32.3,30.43,ENE,58,8.0,16.0,79,0.00,,,0.00,HR-IXPWINDi_r2_v1.2.,2013-03-10 15:08:00,
2013-03-10 11:13:00,38.4,32.7,30.43,ENE,58,3.0,13.0,80,0.00,,,0.00,HR-IXPWINDi_r2_v1.2.,2013-03-10 15:13:00,
2013-03-10 11:18:00,38.6,32.6,30.43,NNE,26,5.0,12.0,79,0.00,,,0.00,HR-IXPWINDi_r2_v1.2.,2013-03-10 15:18:00,
2013-03-10 11:23:00,38.5,32.5,30.43,ENE,68,4.0,16.0,79,0.00,,,0.00,HR-IXPWINDi_r2_v1.2.,2013-03-10 15:23:00,
2013-03-10 11:29:00,38.6,32.9,30.43,NNE,23,7.0,16.0,80,0.00,,,0.00,HR-IXPWINDi_r2_v1.2.,2013-03-10 15:29:00,
2013-03-10 11:34:00,38.7,32.7,30.42,ENE,63,9.0,12.0,79,0.00,,,0.00,HR-IXPWINDi_r2_v1.2.,2013-03-10 15:34:00,
2013-03-10 11:39:00,39.3,32.7,30.42,NE,43,5.0,12.0,77,0.00,,,0.00,HR-IXPWINDi_r2_v1.2.,2013-03-10 15:39:00,
2013-03-10 11:44:00,39.6,32.6,30.42,ENE,60,5.0,12.0,76,0.00,,,0.00,HR-IXPWINDi_r2_v1.2.,2013-03-10 15:44:00,
2013-03-10 11:49:00,39.8,32.8,30.42,ENE,67,5.0,12.0,76,0.00,,,0.00,HR-IXPWINDi_r2_v1.2.,2013-03-10 15:49:00,
2013-03-10 11:54:00,40.0,33.0,30.42,ENE,65,7.0,12.0,76,0.00,,,0.00,HR-IXPWINDi_r2_v1.2.,2013-03-10 15:54:00,
2013-03-10 12:00:00,40.4,32.7,30.42,ENE,68,4.0,11.0,74,0.00,,,0.00,HR-IXPWINDi_r2_v1.2.,2013-03-10 16:00:00,
2013-03-10 12:05:00,40.7,33.4,30.42,East,85,7.0,11.0,75,0.00,,,0.00,HR-IXPWINDi_r2_v1.2.,2013-03-10 16:05:00,
2013-03-10 12:10:00,40.3,32.3,30.42,ENE,61,7.0,13.0,73,0.00,,,0.00,HR-IXPWINDi_r2_v1.2.,2013-03-10 16:10:00,
2013-03-10 12:15:00,40.4,32.7,30.42,NE,56,6.0,13.0,74,0.00,,,0.00,HR-IXPWINDi_r2_v1.2.,2013-03-10 16:15:00,
2013-03-10 12:20:00,40.7,33.4,30.42,ENE,64,7.0,11.0,75,0.00,,,0.00,HR-IXPWINDi_r2_v1.2.,2013-03-10 16:20:00,
2013-03-10 12:26:00,40.6,32.9,30.42,NE,47,4.0,11.0,74,0.00,,,0.00,HR-IXPWINDi_r2_v1.2.,2013-03-10 16:26:00,
2013-03-10 12:31:00,40.8,33.5,30.41,NE,48,6.0,11.0,75,0.00,,,0.00,HR-IXPWINDi_r2_v1.2.,2013-03-10 16:31:00,
2013-03-10 12:36:00,40.8,33.5,30.41,ENE,75,4.0,14.0,75,0.00,,,0.00,HR-IXPWINDi_r2_v1.2.,2013-03-10 16:36:00,
2013-03-10 12:41:00,41.2,33.8,30.41,ENE,64,8.0,14.0,75,0.00,,,0.00,HR-IXPWINDi_r2_v1.2.,2013-03-10 16:41:00,
2013-03-10 12:46:00,41.1,33.4,30.41,NE,47,7.0,14.0,74,0.00,,,0.00,HR-IXPWINDi_r2_v1.2.,2013-03-10 16:46:00,
2013-03-10 12:52:00,41.3,33.6,30.41,ENE,75,6.0,14.0,74,0.00,,,0.00,HR-IXPWINDi_r2_v1.2.,2013-03-10 16:52:00,
2013-03-10 12:57:00,41.7,33.7,30.41,ENE,68,4.0,14.0,73,0.00,,,0.00,HR-IXPWINDi_r2_v1.2.,2013-03-10 16:57:00,
2013-03-10 13:02:00,42.1,34.0,30.41,ENE,74,6.0,10.0,73,0.00,,,0.00,HR-IXPWINDi_r2_v1.2.,2013-03-10 17:02:00,
2013-03-10 13:07:00,42.1,33.7,30.41,East,79,7.0,10.0,72,0.00,,,0.00,HR-IXPWINDi_r2_v1.2.,2013-03-10 17:07:00,
2013-03-10 13:13:00,42.0,32.9,30.41,ENE,58,5.0,9.0,70,0.00,,,0.00,HR-IXPWINDi_r2_v1.2.,2013-03-10 17:13:00,
2013-03-10 13:18:00,41.4,33.7,30.40,ENE,65,3.0,9.0,74,0.00,,,0.00,HR-IXPWINDi_r2_v1.2.,2013-03-10 17:18:00,
2013-03-10 13:23:00,41.4,33.4,30.40,ENE,64,7.0,9.0,73,0.00,,,0.00,HR-IXPWINDi_r2_v1.2.,2013-03-10 17:23:00,
2013-03-10 13:28:00,41.5,33.5,30.40,ENE,63,4.0,9.0,73,0.00,,,0.00,HR-IXPWINDi_r2_v1.2.,2013-03-10 17:28:00,
2013-03-10 13:33:00,42.0,34.6,30.40,ENE,72,8.0,9.0,75,0.00,,,0.00,HR-IXPWINDi_r2_v1.2.,2013-03-10 17:33:00,
2013-03-10 13:39:00,41.5,33.1,30.40,NNE,30,5.0,11.0,72,0.00,,,0.00,HR-IXPWINDi_r2_v1.2.,2013-03-10 17:39:00,
2013-03-10 13:44:00,42.3,34.2,30.39,ENE,77,4.0,11.0,73,0.00,,,0.00,HR-IXPWINDi_r2_v1.2.,2013-03-10 17:44:00,
2013-03-10 13:49:00,42.3,34.6,30.39,East,101,7.0,7.0,74,0.00,,,0.00,HR-IXPWINDi_r2_v1.2.,2013-03-10 17:49:00,
2013-03-10 13:54:00,42.5,34.4,30.39,SSE,158,3.0,9.0,73,0.00,,,0.00,HR-IXPWINDi_r2_v1.2.,2013-03-10 17:54:00,
2013-03-10 13:59:00,41.8,34.1,30.39,SE,131,6.0,10.0,74,0.00,,,0.00,HR-IXPWINDi_r2_v1.2.,2013-03-10 17:59:00,
2013-03-10 14:05:00,41.4,34.0,30.39,SE,131,7.0,10.0,75,0.00,,,0.00,HR-IXPWINDi_r2_v1.2.,2013-03-10 18:05:00,
2013-03-10 14:10:00,41.5,34.5,30.39,East,86,4.0,9.0,76,0.00,,,0.00,HR-IXPWINDi_r2_v1.2.,2013-03-10 18:10:00,
2013-03-10 14:15:00,41.6,34.6,30.39,ENE,60,4.0,9.0,76,0.00,,,0.00,HR-IXPWINDi_r2_v1.2.,2013-03-10 18:15:00,
2013-03-10 14:21:00,41.7,34.7,30.39,SE,132,4.0,10.0,76,0.00,,,0.00,HR-IXPWINDi_r2_v1.2.,2013-03-10 18:21:00,
2013-03-10 14:26:00,41.0,34.0,30.39,ENE,75,5.0,13.0,76,0.00,,,0.00,HR-IXPWINDi_r2_v1.2.,2013-03-10 18:26:00,
2013-03-10 14:31:00,41.0,34.3,30.39,East,101,4.0,13.0,77,0.00,,,0.00,HR-IXPWINDi_r2_v1.2.,2013-03-10 18:31:00,
2013-03-10 14:36:00,41.2,34.5,30.38,ENE,68,5.0,10.0,77,0.00,,,0.00,HR-IXPWINDi_r2_v1.2.,2013-03-10 18:36:00,
2013-03-10 14:41:00,41.1,33.7,30.38,ESE,108,5.0,11.0,75,0.00,,,0.00,HR-IXPWINDi_r2_v1.2.,2013-03-10 18:41:00,
2013-03-10 14:47:00,41.1,34.1,30.38,ENE,67,8.0,11.0,76,0.00,,,0.00,HR-IXPWINDi_r2_v1.2.,2013-03-10 18:47:00,
2013-03-10 14:52:00,41.1,33.7,30.38,East,80,7.0,11.0,75,0.00,,,0.00,HR-IXPWINDi_r2_v1.2.,2013-03-10 18:52:00,
2013-03-10 14:57:00,41.6,34.2,30.38,East,79,6.0,11.0,75,0.00,,,0.00,HR-IXPWINDi_r2_v1.2.,2013-03-10 18:57:00,
2013-03-10 15:02:00,41.4,34.0,30.38,East,79,4.0,10.0,75,0.00,,,0.00,HR-IXPWINDi_r2_v1.2.,2013-03-10 19:02:00,
2013-03-10 15:07:00,41.9,33.8,30.38,ENE,65,7.0,10.0,73,0.00,,,0.00,HR-IXPWINDi_r2_v1.2.,2013-03-10 19:07:00,
2013-03-10 15:13:00,41.7,34.0,30.38,ENE,72,9.0,10.0,74,0.00,,,0.00,HR-IXPWINDi_r2_v1.2.,2013-03-10 19:13:00,
2013-03-10 15:18:00,41.5,33.8,30.38,East,98,5.0,10.0,74,0.00,,,0.00,HR-IXPWINDi_r2_v1.2.,2013-03-10 19:18:00,
2013-03-10 15:23:00,41.6,34.2,30.38,ENE,64,4.0,10.0,75,0.00,,,0.00,HR-IXPWINDi_r2_v1.2.,2013-03-10 19:23:00,
2013-03-10 15:28:00,42.2,34.5,30.38,ENE,75,3.0,10.0,74,0.00,,,0.00,HR-IXPWINDi_r2_v1.2.,2013-03-10 19:28:00,
2013-03-10 15:33:00,42.0,34.3,30.37,ENE,73,5.0,12.0,74,0.00,,,0.00,HR-IXPWINDi_r2_v1.2.,2013-03-10 19:33:00,
2013-03-10 15:39:00,42.3,34.6,30.37,ENE,74,8.0,12.0,74,0.00,,,0.00,HR-IXPWINDi_r2_v1.2.,2013-03-10 19:39:00,
2013-03-10 15:44:00,41.9,34.2,30.38,ENE,76,4.0,10.0,74,0.00,,,0.00,HR-IXPWINDi_r2_v1.2.,2013-03-10 19:44:00,
2013-03-10 15:49:00,41.9,34.2,30.38,ESE,103,6.0,12.0,74,0.00,,,0.00,HR-IXPWINDi_r2_v1.2.,2013-03-10 19:49:00,
2013-03-10 15:54:00,42.3,34.2,30.37,ENE,70,7.0,12.0,73,0.00,,,0.00,HR-IXPWINDi_r2_v1.2.,2013-03-10 19:54:00,
2013-03-10 15:59:00,42.0,34.3,30.37,East,89,7.0,11.0,74,0.00,,,0.00,HR-IXPWINDi_r2_v1.2.,2013-03-10 19:59:00,
2013-03-10 16:05:00,41.9,33.8,30.38,East,84,5.0,11.0,73,0.00,,,0.00,HR-IXPWINDi_r2_v1.2.,2013-03-10 20:05:00,
2013-03-10 16:10:00,41.6,34.2,30.38,East,85,4.0,11.0,75,0.00,,,0.00,HR-IXPWINDi_r2_v1.2.,2013-03-10 20:10:00,
2013-03-10 16:16:00,41.8,34.1,30.38,ESE,108,3.0,10.0,74,0.00,,,0.00,HR-IXPWINDi_r2_v1.2.,2013-03-10 20:16:00,
2013-03-10 16:21:00,41.9,33.8,30.37,ENE,78,4.0,8.0,73,0.00,,,0.00,HR-IXPWINDi_r2_v1.2.,2013-03-10 20:21:00,
2013-03-10 16:26:00,41.7,33.7,30.37,East,85,3.0,11.0,73,0.00,,,0.00,HR-IXPWINDi_r2_v1.2.,2013-03-10 20:26:00,
2013-03-10 16:31:00,42.0,34.3,30.37,SE,143,7.0,11.0,74,0.00,,,0.00,HR-IXPWINDi_r2_v1.2.,2013-03-10 20:31:00,
2013-03-10 16:37:00,41.7,34.7,30.37,SE,125,10.0,11.0,76,0.00,,,0.00,HR-IXPWINDi_r2_v1.2.,2013-03-10 20:37:00,
2013-03-10 16:42:00,41.2,34.5,30.38,SSE,154,5.0,11.0,77,0.00,,,0.00,HR-IXPWINDi_r2_v1.2.,2013-03-10 20:42:00,
2013-03-10 16:47:00,41.2,34.5,30.37,SSE,160,8.0,11.0,77,0.00,,,0.00,HR-IXPWINDi_r2_v1.2.,2013-03-10 20:47:00,
2013-03-10 16:52:00,40.7,34.0,30.38,SSE,155,8.0,10.0,77,0.00,,,0.00,HR-IXPWINDi_r2_v1.2.,2013-03-10 20:52:00,
2013-03-10 16:57:00,40.3,34.0,30.38,SSE,153,6.0,10.0,78,0.00,,,0.00,HR-IXPWINDi_r2_v1.2.,2013-03-10 20:57:00,
2013-03-10 17:03:00,40.6,34.6,30.38,SSE,158,6.0,10.0,79,0.00,,,0.00,HR-IXPWINDi_r2_v1.2.,2013-03-10 21:03:00,
2013-03-10 17:08:00,40.5,34.5,30.38,SSE,158,6.0,9.0,79,0.00,,,0.00,HR-IXPWINDi_r2_v1.2.,2013-03-10 21:08:00,
2013-03-10 17:13:00,40.5,34.5,30.38,SSE,157,4.0,9.0,79,0.00,,,0.00,HR-IXPWINDi_r2_v1.2.,2013-03-10 21:13:00,
2013-03-10 17:19:00,41.1,35.7,30.38,SSE,158,3.0,8.0,81,0.00,,,0.00,HR-IXPWINDi_r2_v1.2.,2013-03-10 21:19:00,
2013-03-10 17:24:00,41.2,34.8,30.38,SSE,156,4.0,6.0,78,0.00,,,0.00,HR-IXPWINDi_r2_v1.2.,2013-03-10 21:24:00,
2013-03-10 17:29:00,40.9,34.9,30.37,SE,132,6.0,7.0,79,0.00,,,0.00,HR-IXPWINDi_r2_v1.2.,2013-03-10 21:29:00,
2013-03-10 17:34:00,40.7,35.0,30.37,SE,137,3.0,7.0,80,0.00,,,0.00,HR-IXPWINDi_r2_v1.2.,2013-03-10 21:34:00,
2013-03-10 17:39:00,40.3,34.6,30.37,SE,145,6.0,7.0,80,0.00,,,0.00,HR-IXPWINDi_r2_v1.2.,2013-03-10 21:39:00,
2013-03-10 17:44:00,40.1,34.7,30.36,SE,143,4.0,8.0,81,0.00,,,0.00,HR-IXPWINDi_r2_v1.2.,2013-03-10 21:44:00,
2013-03-10 17:49:00,39.8,34.4,30.37,SE,142,5.0,8.0,81,0.00,,,0.00,HR-IXPWINDi_r2_v1.2.,2013-03-10 21:49:00,
2013-03-10 17:54:00,39.8,34.7,30.37,SE,141,6.0,8.0,82,0.00,,,0.00,HR-IXPWINDi_r2_v1.2.,2013-03-10 21:54:00,
2013-03-10 17:59:00,39.7,34.9,30.37,SSE,155,6.0,8.0,83,0.00,,,0.00,HR-IXPWINDi_r2_v1.2.,2013-03-10 21:59:00,
2013-03-10 18:04:00,39.5,34.7,30.37,SSE,155,7.0,8.0,83,0.00,,,0.00,HR-IXPWINDi_r2_v1.2.,2013-03-10 22:04:00,
2013-03-10 18:10:00,39.3,34.8,30.37,SSE,163,7.0,8.0,84,0.00,,,0.00,HR-IXPWINDi_r2_v1.2.,2013-03-10 22:10:00,
2013-03-10 18:15:00,39.2,34.4,30.37,South,187,6.0,10.0,83,0.00,,,0.00,HR-IXPWINDi_r2_v1.2.,2013-03-10 22:15:00,
2013-03-10 18:20:00,38.9,34.4,30.37,SSE,160,6.0,10.0,84,0.00,,,0.00,HR-IXPWINDi_r2_v1.2.,2013-03-10 22:20:00,
2013-03-10 18:25:00,38.5,34.1,30.38,SSE,155,6.0,8.0,84,0.00,,,0.00,HR-IXPWINDi_r2_v1.2.,2013-03-10 22:25:00,
2013-03-10 18:30:00,38.2,34.1,30.38,SSE,155,6.0,8.0,85,0.00,,,0.00,HR-IXPWINDi_r2_v1.2.,2013-03-10 22:30:00,
2013-03-10 18:36:00,37.9,34.1,30.38,SSW,196,4.0,8.0,86,0.00,,,0.00,HR-IXPWINDi_r2_v1.2.,2013-03-10 22:36:00,
2013-03-10 18:41:00,37.7,34.1,30.38,SSE,161,5.0,8.0,87,0.00,,,0.00,HR-IXPWINDi_r2_v1.2.,2013-03-10 22:41:00,
2013-03-10 18:46:00,37.6,34.0,30.38,SSE,163,5.0,8.0,87,0.00,,,0.00,HR-IXPWINDi_r2_v1.2.,2013-03-10 22:46:00,
2013-03-10 18:52:00,37.5,33.9,30.38,SSE,162,6.0,7.0,87,0.00,,,0.00,HR-IXPWINDi_r2_v1.2.,2013-03-10 22:52:00,
2013-03-10 18:57:00,37.4,33.8,30.39,South,170,7.0,7.0,87,0.00,,,0.00,HR-IXPWINDi_r2_v1.2.,2013-03-10 22:57:00,
2013-03-10 19:02:00,37.4,33.8,30.39,SSE,160,6.0,7.0,87,0.00,,,0.00,HR-IXPWINDi_r2_v1.2.,2013-03-10 23:02:00,
2013-03-10 19:08:00,37.3,33.8,30.39,SSE,165,6.0,7.0,87,0.00,,,0.00,HR-IXPWINDi_r2_v1.2.,2013-03-10 23:08:00,
2013-03-10 19:13:00,37.3,34.0,30.39,SSE,166,4.0,7.0,88,0.00,,,0.00,HR-IXPWINDi_r2_v1.2.,2013-03-10 23:13:00,
2013-03-10 19:18:00,37.3,33.8,30.39,SSE,163,5.0,7.0,87,0.00,,,0.00,HR-IXPWINDi_r2_v1.2.,2013-03-10 23:18:00,
2013-03-10 19:23:00,37.3,33.8,30.39,South,170,4.0,7.0,87,0.00,,,0.00,HR-IXPWINDi_r2_v1.2.,2013-03-10 23:23:00,
2013-03-10 19:28:00,37.3,34.0,30.40,South,191,6.0,7.0,88,0.00,,,0.00,HR-IXPWINDi_r2_v1.2.,2013-03-10 23:28:00,
2013-03-10 19:33:00,37.3,33.8,30.40,South,180,5.0,7.0,87,0.00,,,0.00,HR-IXPWINDi_r2_v1.2.,2013-03-10 23:33:00,
2013-03-10 19:38:00,37.2,33.7,30.40,South,170,6.0,7.0,87,0.00,,,0.00,HR-IXPWINDi_r2_v1.2.,2013-03-10 23:38:00,
2013-03-10 19:43:00,37.2,33.9,30.39,SE,145,5.0,7.0,88,0.00,,,0.00,HR-IXPWINDi_r2_v1.2.,2013-03-10 23:43:00,
2013-03-10 19:48:00,37.2,33.9,30.40,SSE,161,5.0,7.0,88,0.00,,,0.00,HR-IXPWINDi_r2_v1.2.,2013-03-10 23:48:00,
2013-03-10 19:53:00,37.1,33.8,30.39,SSE,159,5.0,7.0,88,0.00,,,0.00,HR-IXPWINDi_r2_v1.2.,2013-03-10 23:53:00,
2013-03-10 19:58:00,37.1,33.8,30.39,SSE,164,5.0,7.0,88,0.00,,,0.00,HR-IXPWINDi_r2_v1.2.,2013-03-10 23:58:00,
2013-03-10 20:04:00,37.1,33.8,30.39,SSE,151,6.0,7.0,88,0.00,,,0.00,HR-IXPWINDi_r2_v1.2.,2013-03-11 00:04:00,
2013-03-10 20:09:00,37.1,33.8,30.39,SSE,158,5.0,6.0,88,0.00,,,0.00,HR-IXPWINDi_r2_v1.2.,2013-03-11 00:09:00,
2013-03-10 20:14:00,37.0,34.0,30.39,SSE,155,6.0,7.0,89,0.00,,,0.00,HR-IXPWINDi_r2_v1.2.,2013-03-11 00:14:00,
2013-03-10 20:19:00,37.1,33.8,30.39,SSE,151,6.0,8.0,88,0.00,,,0.00,HR-IXPWINDi_r2_v1.2.,2013-03-11 00:19:00,
2013-03-10 20:24:00,37.0,33.7,30.39,SSE,149,4.0,8.0,88,0.00,,,0.00,HR-IXPWINDi_r2_v1.2.,2013-03-11 00:24:00,
2013-03-10 20:29:00,36.9,33.6,30.39,SSE,167,3.0,8.0,88,0.00,,,0.00,HR-IXPWINDi_r2_v1.2.,2013-03-11 00:29:00,
2013-03-10 20:34:00,37.0,34.0,30.39,SSE,153,4.0,7.0,89,0.00,,,0.00,HR-IXPWINDi_r2_v1.2.,2013-03-11 00:34:00,
2013-03-10 20:40:00,36.9,33.9,30.39,SSE,149,4.0,5.0,89,0.00,,,0.00,HR-IXPWINDi_r2_v1.2.,2013-03-11 00:40:00,
2013-03-10 20:45:00,36.8,34.1,30.39,SSE,155,4.0,5.0,90,0.00,,,0.00,HR-IXPWINDi_r2_v1.2.,2013-03-11 00:45:00,
2013-03-10 20:50:00,36.8,34.1,30.39,SSE,162,3.0,6.0,90,0.00,,,0.00,HR-IXPWINDi_r2_v1.2.,2013-03-11 00:50:00,
2013-03-10 20:55:00,37.0,34.3,30.39,SSE,152,5.0,7.0,90,0.00,,,0.00,HR-IXPWINDi_r2_v1.2.,2013-03-11 00:55:00,
2013-03-10 21:00:00,37.1,34.4,30.39,SE,144,5.0,7.0,90,0.00,,,0.00,HR-IXPWINDi_r2_v1.2.,2013-03-11 01:00:00,
2013-03-10 21:06:00,37.1,34.1,30.38,SSE,150,3.0,7.0,89,0.00,,,0.00,HR-IXPWINDi_r2_v1.2.,2013-03-11 01:06:00,
2013-03-10 21:11:00,37.0,34.0,30.38,SE,141,6.0,8.0,89,0.00,,,0.00,HR-IXPWINDi_r2_v1.2.,2013-03-11 01:11:00,
2013-03-10 21:16:00,36.9,33.9,30.37,SSE,148,5.0,8.0,89,0.00,,,0.00,HR-IXPWINDi_r2_v1.2.,2013-03-11 01:16:00,
2013-03-10 21:21:00,36.9,34.2,30.37,SE,145,4.0,7.0,90,0.00,,,0.00,HR-IXPWINDi_r2_v1.2.,2013-03-11 01:21:00,
2013-03-10 21:26:00,36.9,34.2,30.38,SSE,150,2.0,7.0,90,0.00,,,0.00,HR-IXPWINDi_r2_v1.2.,2013-03-11 01:26:00,
2013-03-10 21:31:00,36.8,34.1,30.38,SE,145,1.0,5.0,90,0.00,,,0.00,HR-IXPWINDi_r2_v1.2.,2013-03-11 01:31:00,
2013-03-10 21:36:00,36.7,34.0,30.39,SSE,153,2.0,3.0,90,0.00,,,0.00,HR-IXPWINDi_r2_v1.2.,2013-03-11 01:36:00,
2013-03-10 21:41:00,36.7,34.0,30.39,SSE,152,2.0,3.0,90,0.00,,,0.00,HR-IXPWINDi_r2_v1.2.,2013-03-11 01:41:00,
2013-03-10 21:46:00,36.7,33.7,30.39,SE,141,2.0,4.0,89,0.00,,,0.00,HR-IXPWINDi_r2_v1.2.,2013-03-11 01:46:00,
2013-03-10 21:52:00,36.6,33.6,30.38,SE,146,5.0,5.0,89,0.00,,,0.00,HR-IXPWINDi_r2_v1.2.,2013-03-11 01:52:00,
2013-03-10 21:57:00,36.5,33.8,30.39,SSE,152,2.0,6.0,90,0.00,,,0.00,HR-IXPWINDi_r2_v1.2.,2013-03-11 01:57:00,
2013-03-10 22:02:00,36.5,33.8,30.39,SE,146,2.0,6.0,90,0.00,,,0.00,HR-IXPWINDi_r2_v1.2.,2013-03-11 02:02:00,
2013-03-10 22:07:00,36.6,33.9,30.38,SSE,154,4.0,4.0,90,0.00,,,0.00,HR-IXPWINDi_r2_v1.2.,2013-03-11 02:07:00,
2013-03-10 22:12:00,36.6,33.9,30.38,SSE,150,4.0,5.0,90,0.00,,,0.00,HR-IXPWINDi_r2_v1.2.,2013-03-11 02:12:00,
2013-03-10 22:17:00,36.6,33.9,30.38,SSE,158,4.0,5.0,90,0.00,,,0.00,HR-IXPWINDi_r2_v1.2.,2013-03-11 02:17:00,
2013-03-10 22:22:00,36.7,34.3,30.39,SSE,149,3.0,5.0,91,0.00,,,0.00,HR-IXPWINDi_r2_v1.2.,2013-03-11 02:22:00,
2013-03-10 22:27:00,36.7,34.3,30.38,SSE,162,2.0,5.0,91,0.00,,,0.00,HR-IXPWINDi_r2_v1.2.,2013-03-11 02:27:00,
2013-03-10 22:33:00,36.8,34.4,30.39,SSE,166,2.0,4.0,91,0.00,,,0.00,HR-IXPWINDi_r2_v1.2.,2013-03-11 02:33:00,
2013-03-10 22:38:00,36.9,34.5,30.39,SSE,158,3.0,4.0,91,0.00,,,0.00,HR-IXPWINDi_r2_v1.2.,2013-03-11 02:38:00,
2013-03-10 22:43:00,37.0,34.9,30.39,SSE,156,0.0,4.0,92,0.00,,,0.00,HR-IXPWINDi_r2_v1.2.,2013-03-11 02:43:00,
2013-03-10 22:48:00,37.0,34.6,30.39,South,175,2.0,4.0,91,0.00,,,0.00,HR-IXPWINDi_r2_v1.2.,2013-03-11 02:48:00,
2013-03-10 22:53:00,37.0,34.6,30.39,South,169,2.0,2.0,91,0.00,,,0.00,HR-IXPWINDi_r2_v1.2.,2013-03-11 02:53:00,
2013-03-10 22:58:00,37.1,34.7,30.39,SE,143,4.0,6.0,91,0.00,,,0.00,HR-IXPWINDi_r2_v1.2.,2013-03-11 02:58:00,
2013-03-10 23:03:00,37.3,34.9,30.38,SSE,152,6.0,7.0,91,0.00,,,0.00,HR-IXPWINDi_r2_v1.2.,2013-03-11 03:03:00,
2013-03-10 23:08:00,37.3,34.9,30.38,SSE,158,9.0,9.0,91,0.00,,,0.00,HR-IXPWINDi_r2_v1.2.,2013-03-11 03:08:00,
2013-03-10 23:14:00,37.4,35.0,30.38,South,176,6.0,9.0,91,0.00,,,0.00,HR-IXPWINDi_r2_v1.2.,2013-03-11 03:14:00,
2013-03-10 23:19:00,37.5,35.1,30.38,South,176,6.0,9.0,91,0.00,,,0.00,HR-IXPWINDi_r2_v1.2.,2013-03-11 03:19:00,
2013-03-10 23:24:00,37.6,35.4,30.38,SSE,152,6.0,9.0,92,0.00,,,0.00,HR-IXPWINDi_r2_v1.2.,2013-03-11 03:24:00,
2013-03-10 23:29:00,37.6,35.2,30.38,SSE,153,7.0,9.0,91,0.00,,,0.00,HR-IXPWINDi_r2_v1.2.,2013-03-11 03:29:00,
2013-03-10 23:34:00,37.6,34.9,30.37,South,169,8.0,11.0,90,0.00,,,0.00,HR-IXPWINDi_r2_v1.2.,2013-03-11 03:34:00,
2013-03-10 23:40:00,37.7,34.7,30.37,SSE,155,7.0,11.0,89,0.00,,,0.00,HR-IXPWINDi_r2_v1.2.,2013-03-11 03:40:00,
2013-03-10 23:45:00,37.7,35.0,30.37,SSE,161,6.0,11.0,90,0.00,,,0.00,HR-IXPWINDi_r2_v1.2.,2013-03-11 03:45:00,
2013-03-10 23:50:00,37.7,35.0,30.37,South,188,9.0,10.0,90,0.00,,,0.00,HR-IXPWINDi_r2_v1.2.,2013-03-11 03:50:00,
2013-03-10 23:55:00,37.7,34.7,30.37,SSE,162,9.0,12.0,89,0.00,,,0.00,HR-IXPWINDi_r2_v1.2.,2013-03-11 03:55:00,